Flag for Russia Weather past 2 weeks in Kemerovo, Russia

Now
37 °F

Passing clouds.


Feels Like: 31 °F
Forecast: 35 / 42 °F
Wind: 8 mph from South

Location: Kemerovo

Current Time: Sep 19, 2014 at 7:50:16 AM

Latest Report: Sep 19, 2014 at 7:00 AM


Visibility: N/A

Pressure: 29.74 "Hg

Humidity: 93%

Dew point: 36 °F

Location of KemerovoLocation

Historic Weather in Kemerovo — Graph

°F

Kemerovo temperature yesterday

Maximum temperature yesterday: 72 °F (at 2:30 PM)
Minimum temperature yesterday: 41 °F (at 5:00 AM)
Average temperature yesterday: 55 °F

Past Weeks' High & Low Weather Summary

 TemperatureHumidityPressure
High72 °F (Sep 18, 2:30 PM)100% (Sep 7, 8:00 AM)30.21 "Hg (Sep 7, 8:00 AM)
Low28 °F (Sep 16, 6:00 AM)30% (Sep 5, 3:00 PM)29.45 "Hg (Sep 18, 6:30 PM)
Average47 °F79%29.91 "Hg
* Reported Sep 4 6:00 AM — Sep 19 6:30 AM, Kemerovo, Weather by CustomWeather, © 2014

Note: Actual official high and low records may vary slightly from our data, if they occured in-between our weather recording intervals... More about our weather records

Advertising

Kemerovo weather history for previous 24 hours

 ConditionsComfort  
Time TempWeatherWind HumidityBarometerVisibility
6:30 AM
Sep 19
39 °FPassing clouds.10 mph93%29.74 "HgN/A
6:00 AM39 °FMostly cloudy.13 mph93%29.71 "HgN/A
5:30 AM39 °FMostly cloudy.13 mph87%29.71 "HgN/A
5:00 AM39 °FMostly cloudy.13 mph87%29.68 "HgN/A
4:30 AM39 °FMostly cloudy.17 mph87%29.65 "HgN/A
4:00 AM39 °FMostly cloudy.15 mph87%29.62 "HgN/A
3:30 AM41 °FMostly cloudy.15 mph93%29.59 "HgN/A
3:00 AM41 °FOvercast.20 mph93%29.59 "HgN/A
2:30 AM46 °FSprinkles. Low clouds.22 mph93%29.53 "Hg2 mi
2:00 AM46 °FOvercast.22 mph93%29.53 "HgN/A
1:30 AM55 °FLow clouds.22 mph94%29.47 "HgN/A
1:00 AM55 °FOvercast.17 mph94%29.45 "HgN/A
12:30 AM55 °FSprinkles. Overcast.13 mph100%29.45 "Hg4 mi
12:00 AM55 °FSprinkles. Overcast.10 mph100%29.45 "Hg2 mi
11:30 PM
Sep 18
57 °FSprinkles. Overcast.13 mph94%29.45 "Hg3 mi
11:00 PM57 °FSprinkles. Overcast.15 mph94%29.45 "Hg4 mi
10:30 PM59 °FSprinkles. Overcast.13 mph77%29.45 "Hg4 mi
10:00 PM59 °FSprinkles. Overcast.17 mph77%29.47 "Hg3 mi
9:30 PM64 °FSprinkles. Mostly cloudy.10 mph52%29.47 "HgN/A
9:00 PM64 °FSprinkles. Overcast.17 mph52%29.47 "HgN/A
8:30 PM61 °FSprinkles. Mostly cloudy.3 mph68%29.47 "HgN/A
8:00 PM61 °FOvercast.1 mph68%29.47 "HgN/A
7:30 PM66 °FOvercast.13 mph43%29.47 "HgN/A
7:00 PM66 °FSunny.17 mph43%29.47 "Hg10 mi
6:30 PM68 °FSunny.17 mph40%29.45 "Hg10 mi
6:00 PM68 °FSunny.13 mph40%29.47 "Hg10 mi
5:30 PM70 °FSunny.13 mph35%29.47 "Hg10 mi
5:00 PM70 °FSunny.15 mph35%29.47 "Hg10 mi
4:30 PM72 °FSunny.15 mph36%29.50 "Hg10 mi
4:00 PM72 °FSunny.13 mph36%29.53 "Hg10 mi
3:30 PM72 °FSunny.13 mph36%29.53 "Hg10 mi
3:00 PM72 °FSunny.13 mph36%29.56 "Hg10 mi
2:30 PM72 °FSunny.13 mph36%29.56 "Hg10 mi
2:00 PM70 °FSunny.13 mph43%29.56 "Hg10 mi
1:30 PM68 °FSunny.13 mph46%29.59 "Hg10 mi
1:00 PM68 °FSunny.17 mph46%29.62 "Hg10 mi
12:30 PM59 °FSunny.15 mph68%29.62 "Hg10 mi
12:00 PM59 °FSunny.10 mph68%29.62 "Hg10 mi
11:30 AM55 °FSunny.13 mph77%29.65 "Hg10 mi
11:00 AM55 °FSunny.10 mph77%29.65 "Hg10 mi
10:30 AM54 °FSunny.13 mph77%29.65 "Hg10 mi
10:00 AM54 °FSunny.13 mph77%29.65 "Hg10 mi
9:30 AM48 °FBroken clouds.10 mph94%29.68 "Hg4 mi
9:00 AM48 °FBroken clouds.6 mph94%29.68 "Hg4 mi
8:30 AM43 °FBroken clouds.10 mph100%29.68 "Hg4 mi
8:00 AM43 °FFog.8 mph100%29.71 "Hg3 mi
7:30 AM41 °FFog.6 mph100%29.71 "Hg2 mi
7:00 AM41 °FFog.6 mph100%29.74 "Hg1 mi
Weather by CustomWeather, © 2014

See weather overviewHow to use our weather pages